Weather History for Colima, Mexico

Change the Weather History Date:

Saturday, November 24, 2012

  Actual Average Record
Temperature  
Mean Temperature 80 °F -  
Max Temperature 93 °F 82 °F 95 °F (2001)
Min Temperature 68 °F 65 °F 62 °F (2002)
Cooling Degree Days 16    
Growing Degree Days 30 (Base 50)    
Moisture  
Dew Point 59 °F    
Average Humidity 50    
Maximum Humidity 73    
Minimum Humidity 28    
Precipitation  
Precipitation 0.00 in - - ()
Sea Level Pressure  
Sea Level Pressure 30.00 in    
Wind  
Wind Speed 11 mph ()    
Max Wind Speed 20 mph    
Max Gust Speed -    
Visibility 7.5 miles    
Events      
Averages and records for this station are not official NWS values.
T = Trace of Precipitation, MM = Missing Value Source: Averaged Metar Reports

Daily Weather History Graph

Daily Weather History Graph

Search for Another Location

Airport:

Trip Planner

Search our weather history database for the weather conditions in past years. The results will help you decide how hot, cold, wet, or windy it might be!

Date:

Astronomy

Nov. 24, 2012 Rise Set
Actual Time 7:07 AM CST 6:14 PM CST
Civil Twilight 6:44 AM CST 6:38 PM CST
Nautical Twilight 6:17 AM CST 7:04 PM CST
Astronomical Twilight 5:50 AM CST 7:31 PM CST
Moon 3:41 PM CST (11/24) 3:49 AM CST (11/24)
Length of Visible Light 11h 53m
Length of Day
11h 06m
Waxing Gibbous, 87% of the Moon is Illuminated
Nov 24
Waxing Gibbous
Nov 28
Full
Dec 6
Last Quarter
Dec 13
New
Dec 19
First Quarter

Hourly Weather History & Observations

Time (CST) Temp. Heat Index Dew Point Humidity Pressure Visibility Wind Dir Wind Speed Gust Speed Precip Events Conditions
5:55 AM 69.8 °F - 57.2 °F 64% 30.02 in 8.0 mi North 19.6 mph - N/A   Scattered Clouds
6:49 AM 69.8 °F - 57.2 °F 64% 30.05 in 8.0 mi North 13.8 mph - N/A   Scattered Clouds
7:42 AM 69.8 °F - 53.6 °F 56% 30.05 in 8.0 mi North 17.3 mph - N/A   Scattered Clouds
8:45 AM 75.2 °F - 53.6 °F 47% 30.05 in 8.0 mi North 17.3 mph - N/A   Scattered Clouds
8:49 AM 76 °F - 60 °F 49% 30.01 in 4 mi East 4.5 mph - -   Haze
9:50 AM 73.4 °F - 53.6 °F 50% 30.10 in 8.0 mi North 17.3 mph - N/A   Scattered Clouds
10:54 AM 80.6 °F - 51.8 °F 37% 30.07 in 8.0 mi NNE 17.3 mph - N/A   Scattered Clouds
11:48 AM 88 °F - 59 °F 28% 29.97 in 6 mi NE 2.2 mph - -   Haze
11:50 AM 80.6 °F 80.3 °F 53.6 °F 39% 30.07 in 8.0 mi NNE 17.3 mph - N/A   Scattered Clouds
12:51 PM 82.4 °F 81.4 °F 53.6 °F 37% 30.03 in 8.0 mi NNE 13.8 mph - N/A   Scattered Clouds
1:40 PM 84.2 °F 85.0 °F 62.6 °F 48% 30.01 in 8.0 mi NNE 5.8 mph - N/A   Mostly Cloudy
2:40 PM 86.0 °F 86.6 °F 62.6 °F 45% 29.97 in 8.0 mi NNE 11.5 mph - N/A   Mostly Cloudy
2:48 PM 89 °F - 67 °F 38% 29.86 in 6 mi SE 8.9 mph - -   Haze
3:40 PM 84.2 °F 85.0 °F 62.6 °F 48% 29.98 in 8.0 mi NNE 11.5 mph - N/A   Mostly Cloudy
4:44 PM 80.6 °F 81.8 °F 62.6 °F 54% 29.96 in 8.0 mi WSW 5.8 mph - N/A   Mostly Cloudy
5:46 PM 78.8 °F - 62.6 °F 57% 29.98 in 8.0 mi WSW 11.5 mph - N/A   Mostly Cloudy
5:50 PM 80 °F - 70 °F 63% 29.88 in 6 mi SE 6.7 mph - -   Haze
6:40 PM 71.6 °F - 62.6 °F 73% 30.01 in 8.0 mi Calm Calm - N/A   Mostly Cloudy
7:40 PM 77.0 °F - 62.6 °F 61% 30.02 in 8.0 mi Calm Calm - N/A   Overcast